| time (UTC) | temp C | wind direction | speed KPH | gust KPH | rain 1hr cm | rain 24hr cm | rain mn cm | humidity % | barometer mb |
| 20260503010051 | 10 | 0 | 0.0 | 0.0 | 0.00 | 0.23 | 0.23 | 90 | 1012.4 |
| 20260503005546 | 10 | 0 | 0.0 | 0.0 | 0.00 | 0.23 | 0.23 | 89 | 1012.3 |
| 20260503005043 | 11 | 0 | 0.0 | 0.0 | 0.00 | 0.23 | 0.23 | 89 | 1012.2 |
| 20260503004551 | 11 | 0 | 0.0 | 0.0 | 0.00 | 0.23 | 0.23 | 88 | 1012.2 |
| 20260503004043 | 11 | 0 | 0.0 | 0.0 | 0.00 | 0.23 | 0.23 | 88 | 1012.1 |
| 20260503003542 | 11 | 0 | 0.0 | 0.0 | 0.00 | 0.23 | 0.23 | 88 | 1012.1 |
| 20260503003051 | 11 | 0 | 0.0 | 0.0 | 0.00 | 0.23 | 0.23 | 87 | 1012.0 |
| 20260503002542 | 11 | 0 | 0.0 | 0.0 | 0.00 | 0.23 | 0.23 | 87 | 1011.9 |
| 20260503002042 | 11 | 0 | 0.0 | 0.0 | 0.00 | 0.23 | 0.23 | 87 | 1011.9 |
| 20260503001548 | 12 | 0 | 0.0 | 0.0 | 0.00 | 0.23 | 0.23 | 86 | 1011.9 |
| 20260503001041 | 12 | 0 | 0.0 | 0.0 | 0.00 | 0.23 | 0.23 | 86 | 1011.7 |
| 20260503000541 | 12 | 0 | 0.0 | 0.0 | 0.00 | 0.23 | 0.23 | 86 | 1011.7 |
| 20260503000045 | 12 | 0 | 0.0 | 0.0 | 0.00 | 0.23 | 0.23 | 86 | 1011.6 |
| 20260502235544 | 12 | 0 | 0.0 | 0.0 | 0.00 | 0.23 | 0.23 | 86 | 1011.5 |
| 20260502235042 | 12 | 0 | 0.0 | 0.0 | 0.00 | 0.23 | 0.23 | 86 | 1011.4 |
| 20260502234554 | 12 | 0 | 0.0 | 0.0 | 0.00 | 0.23 | 0.23 | 86 | 1011.3 |
| 20260502234043 | 12 | 0 | 0.0 | 0.0 | 0.00 | 0.23 | 0.23 | 86 | 1011.3 |
| 20260502233543 | 12 | 0 | 0.0 | 0.0 | 0.00 | 0.23 | 0.23 | 86 | 1011.3 |
| 20260502233048 | 12 | 0 | 0.0 | 0.0 | 0.00 | 0.23 | 0.23 | 86 | 1011.3 |
| 20260502232542 | 12 | 0 | 0.0 | 0.0 | 0.00 | 0.23 | 0.23 | 85 | 1011.3 |
| 20260502232042 | 12 | 0 | 0.0 | 0.0 | 0.00 | 0.23 | 0.23 | 85 | 1011.2 |
| 20260502231548 | 12 | 0 | 0.0 | 0.0 | 0.00 | 0.23 | 0.23 | 85 | 1011.1 |
| 20260502231042 | 12 | 0 | 0.0 | 0.0 | 0.00 | 0.23 | 0.23 | 84 | 1011.1 |
| 20260502230541 | 12 | 0 | 0.0 | 0.0 | 0.00 | 0.23 | 0.23 | 84 | 1010.9 |
| 20260502230052 | 12 | 0 | 0.0 | 0.0 | 0.00 | 0.23 | 0.23 | 84 | 1010.9 |
| 20260502225542 | 12 | 0 | 0.0 | 0.0 | 0.00 | 0.23 | 0.23 | 84 | 1011.0 |
| 20260502225042 | 12 | 0 | 0.0 | 0.0 | 0.00 | 0.23 | 0.23 | 84 | 1011.0 |
| 20260502224547 | 12 | 0 | 0.0 | 0.0 | 0.00 | 0.23 | 0.23 | 84 | 1011.0 |
| 20260502224042 | 12 | 0 | 0.0 | 0.0 | 0.00 | 0.23 | 0.23 | 84 | 1010.9 |
| 20260502223543 | 12 | 0 | 0.0 | 0.0 | 0.00 | 0.23 | 0.23 | 84 | 1010.8 |
| 20260502223047 | 12 | 0 | 0.0 | 0.0 | 0.00 | 0.23 | 0.23 | 84 | 1010.9 |
| 20260502222543 | 12 | 0 | 0.0 | 0.0 | 0.00 | 0.23 | 0.23 | 84 | 1011.0 |
| 20260502222043 | 12 | 0 | 0.0 | 0.0 | 0.00 | 0.23 | 0.23 | 83 | 1010.9 |
| 20260502221555 | 12 | 0 | 0.0 | 0.0 | 0.00 | 0.23 | 0.23 | 83 | 1011.0 |
| 20260502221043 | 12 | 0 | 0.0 | 0.0 | 0.00 | 0.23 | 0.23 | 82 | 1010.8 |
| 20260502220542 | 12 | 0 | 0.0 | 0.0 | 0.00 | 0.23 | 0.23 | 82 | 1010.8 |
| 20260502220051 | 12 | 0 | 0.0 | 0.0 | 0.00 | 0.23 | 0.23 | 82 | 1010.7 |
| 20260502215543 | 12 | 0 | 0.0 | 0.0 | 0.00 | 0.23 | 0.23 | 82 | 1010.7 |
| 20260502215043 | 12 | 0 | 0.0 | 0.0 | 0.00 | 0.23 | 0.23 | 82 | 1010.7 |
| 20260502214556 | 12 | 0 | 0.0 | 0.0 | 0.00 | 0.23 | 0.23 | 82 | 1010.7 |
| 20260502214043 | 12 | 0 | 0.0 | 0.0 | 0.00 | 0.23 | 0.23 | 82 | 1010.6 |
| 20260502213542 | 12 | 0 | 0.0 | 0.0 | 0.00 | 0.23 | 0.23 | 81 | 1010.7 |
| 20260502213055 | 12 | 0 | 0.0 | 0.0 | 0.00 | 0.23 | 0.23 | 81 | 1010.7 |
| 20260502212543 | 12 | 0 | 0.0 | 0.0 | 0.00 | 0.23 | 0.23 | 82 | 1010.8 |
| 20260502212043 | 12 | 0 | 0.0 | 0.0 | 0.00 | 0.23 | 0.23 | 82 | 1010.7 |
| 20260502211549 | 12 | 0 | 0.0 | 0.0 | 0.00 | 0.23 | 0.23 | 82 | 1010.6 |
| 20260502211042 | 12 | 0 | 0.0 | 0.0 | 0.00 | 0.23 | 0.23 | 81 | 1010.6 |
| 20260502210543 | 12 | 0 | 0.0 | 0.0 | 0.00 | 0.23 | 0.23 | 82 | 1010.7 |
| 20260502210050 | 12 | 0 | 0.0 | 0.0 | 0.00 | 0.23 | 0.23 | 81 | 1010.8 |
| 20260502205540 | 12 | 0 | 0.0 | 0.0 | 0.00 | 0.23 | 0.23 | 81 | 1010.7 |
| 20260502205042 | 12 | 0 | 0.0 | 0.0 | 0.00 | 0.23 | 0.23 | 81 | 1010.8 |
| 20260502204553 | 12 | 0 | 0.0 | 1.6 | 0.00 | 0.23 | 0.23 | 81 | 1010.7 |
| 20260502204043 | 12 | 0 | 0.0 | 1.6 | 0.00 | 0.23 | 0.23 | 82 | 1010.8 |
| 20260502203543 | 12 | 0 | 0.0 | 1.6 | 0.00 | 0.23 | 0.23 | 82 | 1010.8 |
| 20260502203053 | 12 | 0 | 0.0 | 1.6 | 0.00 | 0.23 | 0.23 | 81 | 1010.9 |
| 20260502202542 | 12 | 148 | 0.0 | 0.0 | 0.00 | 0.23 | 0.23 | 81 | 1010.9 |
| 20260502202046 | 12 | 0 | 0.0 | 0.0 | 0.00 | 0.23 | 0.23 | 83 | 1010.8 |
| 20260502201550 | 12 | 0 | 0.0 | 0.0 | 0.00 | 0.23 | 0.23 | 84 | 1010.7 |
| 20260502201042 | 12 | 0 | 0.0 | 1.6 | 0.00 | 0.23 | 0.23 | 84 | 1010.6 |
| 20260502200542 | 12 | 0 | 0.0 | 1.6 | 0.00 | 0.23 | 0.23 | 82 | 1010.6 |
| 20260502200052 | 12 | 0 | 0.0 | 0.0 | 0.00 | 0.23 | 0.23 | 85 | 1010.6 |
| 20260502195542 | 12 | 0 | 0.0 | 3.2 | 0.00 | 0.23 | 0.23 | 83 | 1010.7 |
| 20260502195043 | 12 | 0 | 0.0 | 3.2 | 0.00 | 0.23 | 0.23 | 83 | 1010.8 |
| 20260502194600 | 12 | 0 | 0.0 | 1.6 | 0.00 | 0.23 | 0.23 | 84 | 1010.9 |
| 20260502194043 | 12 | 0 | 0.0 | 0.0 | 0.00 | 0.23 | 0.23 | 86 | 1010.9 |
| 20260502193543 | 12 | 0 | 0.0 | 0.0 | 0.00 | 0.23 | 0.23 | 85 | 1011.0 |
| 20260502193047 | 12 | 0 | 0.0 | 0.0 | 0.00 | 0.23 | 0.23 | 85 | 1011.1 |
| 20260502192542 | 12 | 0 | 0.0 | 1.6 | 0.00 | 0.23 | 0.23 | 86 | 1011.3 |
| 20260502192043 | 12 | 0 | 0.0 | 1.6 | 0.00 | 0.23 | 0.23 | 87 | 1011.3 |
| 20260502191550 | 12 | 0 | 0.0 | 1.6 | 0.00 | 0.23 | 0.23 | 88 | 1011.2 |
| 20260502191042 | 12 | 0 | 0.0 | 3.2 | 0.00 | 0.23 | 0.23 | 88 | 1011.2 |
| 20260502190543 | 11 | 0 | 0.0 | 3.2 | 0.00 | 0.23 | 0.23 | 88 | 1011.3 |
| 20260502190052 | 11 | 0 | 0.0 | 3.2 | 0.00 | 0.23 | 0.23 | 87 | 1011.4 |
| 20260502185543 | 11 | 113 | 0.0 | 0.0 | 0.00 | 0.23 | 0.23 | 87 | 1011.4 |
| 20260502185042 | 11 | 0 | 0.0 | 0.0 | 0.00 | 0.23 | 0.23 | 88 | 1011.4 |
| 20260502184556 | 11 | 0 | 0.0 | 3.2 | 0.00 | 0.23 | 0.23 | 87 | 1011.5 |
| 20260502184042 | 11 | 0 | 0.0 | 3.2 | 0.00 | 0.23 | 0.23 | 87 | 1011.6 |
| 20260502183542 | 11 | 0 | 0.0 | 1.6 | 0.00 | 0.23 | 0.23 | 89 | 1011.5 |
| 20260502183054 | 11 | 0 | 0.0 | 0.0 | 0.00 | 0.23 | 0.23 | 89 | 1011.5 |
| 20260502182606 | 11 | 0 | 0.0 | 0.0 | 0.00 | 0.23 | 0.23 | 90 | 1011.6 |
| 20260502182042 | 11 | 0 | 0.0 | 1.6 | 0.00 | 0.23 | 0.23 | 90 | 1011.8 |
| 20260502181552 | 11 | 0 | 0.0 | 1.6 | 0.00 | 0.23 | 0.23 | 90 | 1011.8 |
| 20260502181043 | 11 | 0 | 0.0 | 1.6 | 0.00 | 0.23 | 0.23 | 90 | 1012.1 |
| 20260502180543 | 11 | 0 | 0.0 | 1.6 | 0.00 | 0.23 | 0.23 | 90 | 1012.2 |
| 20260502164043 | 10 | 0 | 0.0 | 1.6 | 0.03 | 0.23 | 0.23 | 93 | 1012.7 |
| 20260502163542 | 10 | 0 | 0.0 | 0.0 | 0.03 | 0.23 | 0.23 | 93 | 1012.8 |
| 20260502163052 | 10 | 0 | 0.0 | 3.2 | 0.03 | 0.23 | 0.23 | 93 | 1012.8 |
| 20260502162542 | 10 | 0 | 0.0 | 3.2 | 0.00 | 0.20 | 0.20 | 93 | 1012.9 |
| 20260502162046 | 10 | 0 | 0.0 | 0.0 | 0.00 | 0.20 | 0.20 | 94 | 1013.1 |
| 20260502161549 | 10 | 0 | 0.0 | 0.0 | 0.00 | 0.20 | 0.20 | 93 | 1013.2 |
| 20260502161042 | 10 | 0 | 0.0 | 0.0 | 0.00 | 0.20 | 0.20 | 93 | 1013.3 |
| 20260502160542 | 10 | 0 | 0.0 | 0.0 | 0.00 | 0.20 | 0.20 | 93 | 1013.3 |
| 20260502152042 | 10 | 0 | 0.0 | 1.6 | 0.03 | 0.20 | 0.20 | 93 | 1012.8 |
| 20260502151602 | 10 | 0 | 0.0 | 3.2 | 0.05 | 0.20 | 0.20 | 93 | 1013.0 |
| 20260502151042 | 10 | 0 | 0.0 | 3.2 | 0.05 | 0.20 | 0.20 | 93 | 1012.9 |
| 20260502150543 | 10 | 334 | 0.0 | 1.6 | 0.05 | 0.20 | 0.20 | 94 | 1012.8 |
| 20260502130543 | 10 | 0 | 0.0 | 0.0 | 0.08 | 0.08 | 0.08 | 91 | 1012.1 |
| 20260502123546 | 10 | 0 | 0.0 | 0.0 | 0.00 | 0.00 | 0.00 | 90 | 1011.8 |
| 20260502123059 | 10 | 0 | 0.0 | 0.0 | 0.00 | 0.00 | 0.00 | 90 | 1011.6 |
| 20260502122543 | 10 | 0 | 0.0 | 0.0 | 0.00 | 0.00 | 0.00 | 89 | 1011.5 |
| 20260502122043 | 10 | 0 | 0.0 | 0.0 | 0.00 | 0.00 | 0.00 | 89 | 1011.4 |
| 20260502121556 | 10 | 0 | 0.0 | 0.0 | 0.00 | 0.00 | 0.00 | 89 | 1011.4 |
| 20260502121043 | 10 | 0 | 0.0 | 0.0 | 0.00 | 0.00 | 0.00 | 89 | 1011.4 |
| 20260502120544 | 10 | 0 | 0.0 | 0.0 | 0.00 | 0.00 | 0.00 | 89 | 1011.5 |
| 20260502115543 | 10 | 0 | 0.0 | 0.0 | 0.00 | 0.00 | 0.00 | 88 | 1011.6 |
| 20260502115043 | 11 | 0 | 0.0 | 0.0 | 0.00 | 0.00 | 0.00 | 88 | 1011.6 |
| 20260502114555 | 11 | 0 | 0.0 | 0.0 | 0.00 | 0.00 | 0.00 | 87 | 1011.7 |
| 20260502114043 | 11 | 0 | 0.0 | 0.0 | 0.00 | 0.00 | 0.00 | 87 | 1011.7 |
| 20260502113544 | 11 | 0 | 0.0 | 0.0 | 0.00 | 0.00 | 0.00 | 86 | 1011.7 |
| 20260502113053 | 11 | 0 | 0.0 | 0.0 | 0.00 | 0.00 | 0.00 | 86 | 1011.7 |
| 20260502112542 | 11 | 0 | 0.0 | 0.0 | 0.00 | 0.00 | 0.00 | 85 | 1011.7 |
| 20260502112042 | 11 | 0 | 0.0 | 0.0 | 0.00 | 0.00 | 0.00 | 85 | 1011.9 |
| 20260502111550 | 11 | 0 | 0.0 | 0.0 | 0.00 | 0.00 | 0.00 | 84 | 1011.9 |
| 20260502111046 | 11 | 0 | 0.0 | 0.0 | 0.00 | 0.00 | 0.00 | 84 | 1011.9 |
| 20260502110544 | 11 | 0 | 0.0 | 0.0 | 0.00 | 0.00 | 0.00 | 84 | 1011.9 |
| 20260502110054 | 11 | 0 | 0.0 | 0.0 | 0.00 | 0.00 | 0.00 | 83 | 1011.9 |
| 20260502105543 | 12 | 0 | 0.0 | 0.0 | 0.00 | 0.00 | 0.00 | 82 | 1011.9 |
| 20260502105043 | 12 | 0 | 0.0 | 0.0 | 0.00 | 0.00 | 0.00 | 82 | 1011.9 |
| 20260502104547 | 12 | 0 | 0.0 | 0.0 | 0.00 | 0.00 | 0.00 | 81 | 1011.9 |
| 20260502104041 | 12 | 0 | 0.0 | 0.0 | 0.00 | 0.00 | 0.00 | 81 | 1011.9 |
| 20260502103546 | 12 | 0 | 0.0 | 0.0 | 0.00 | 0.00 | 0.00 | 81 | 1011.9 |
| 20260502103058 | 12 | 0 | 0.0 | 0.0 | 0.00 | 0.00 | 0.00 | 82 | 1012.0 |
| 20260502102544 | 12 | 0 | 0.0 | 1.6 | 0.00 | 0.00 | 0.00 | 83 | 1012.0 |
| 20260502102046 | 12 | 0 | 0.0 | 1.6 | 0.00 | 0.00 | 0.00 | 83 | 1011.9 |
| 20260502101558 | 11 | 0 | 0.0 | 0.0 | 0.00 | 0.00 | 0.00 | 83 | 1011.8 |
| 20260502101042 | 11 | 0 | 0.0 | 0.0 | 0.00 | 0.00 | 0.00 | 84 | 1011.9 |
| 20260502100542 | 11 | 0 | 0.0 | 0.0 | 0.00 | 0.00 | 0.00 | 86 | 1012.0 |
| 20260502100110 | 11 | 0 | 0.0 | 0.0 | 0.00 | 0.00 | 0.00 | 86 | 1012.0 |
| 20260502091047 | 11 | 0 | 0.0 | 0.0 | 0.00 | 0.00 | 0.00 | 87 | 1011.7 |
| 20260502090543 | 11 | 0 | 0.0 | 0.0 | 0.00 | 0.00 | 0.00 | 88 | 1011.8 |
| 20260502071043 | 11 | 0 | 0.0 | 0.0 | 0.00 | 0.00 | 0.00 | 88 | 1011.1 |
| 20260502070544 | 11 | 0 | 0.0 | 0.0 | 0.00 | 0.00 | 0.00 | 88 | 1011.1 |
| 20260502070053 | 11 | 0 | 0.0 | 0.0 | 0.00 | 0.00 | 0.00 | 87 | 1011.1 |
| 20260502065543 | 11 | 0 | 0.0 | 0.0 | 0.00 | 0.00 | 0.00 | 87 | 1011.1 |
| 20260502065043 | 11 | 0 | 0.0 | 0.0 | 0.00 | 0.00 | 0.00 | 87 | 1011.0 |
| 20260502064546 | 11 | 0 | 0.0 | 0.0 | 0.00 | 0.00 | 0.00 | 87 | 1011.1 |
| 20260502064043 | 11 | 0 | 0.0 | 0.0 | 0.00 | 0.00 | 0.00 | 87 | 1011.3 |
| 20260502063543 | 11 | 0 | 0.0 | 0.0 | 0.00 | 0.00 | 0.00 | 87 | 1011.3 |
| 20260502063054 | 11 | 0 | 0.0 | 0.0 | 0.00 | 0.00 | 0.00 | 87 | 1011.3 |
| 20260502062542 | 11 | 0 | 0.0 | 0.0 | 0.00 | 0.00 | 0.00 | 87 | 1011.4 |
| 20260502062044 | 11 | 0 | 0.0 | 0.0 | 0.00 | 0.00 | 0.00 | 87 | 1011.4 |
| 20260502061610 | 11 | 0 | 0.0 | 0.0 | 0.00 | 0.00 | 0.00 | 87 | 1011.4 |
| 20260502061042 | 11 | 0 | 0.0 | 0.0 | 0.00 | 0.00 | 0.00 | 87 | 1011.5 |
| 20260502060544 | 11 | 0 | 0.0 | 0.0 | 0.00 | 0.00 | 0.00 | 87 | 1011.4 |
| 20260502060048 | 11 | 0 | 0.0 | 0.0 | 0.00 | 0.00 | 0.00 | 87 | 1011.2 |
| 20260502055543 | 11 | 0 | 0.0 | 0.0 | 0.00 | 0.00 | 0.00 | 87 | 1011.3 |
| 20260502055044 | 11 | 0 | 0.0 | 0.0 | 0.00 | 0.00 | 0.00 | 86 | 1011.3 |
| 20260502054548 | 11 | 0 | 0.0 | 0.0 | 0.00 | 0.00 | 0.00 | 86 | 1011.4 |
| 20260502054043 | 11 | 0 | 0.0 | 0.0 | 0.00 | 0.00 | 0.00 | 86 | 1011.5 |
| 20260502053543 | 11 | 0 | 0.0 | 0.0 | 0.00 | 0.00 | 0.00 | 86 | 1011.5 |
| 20260502053102 | 11 | 0 | 0.0 | 0.0 | 0.00 | 0.00 | 0.00 | 86 | 1011.5 |
| 20260502052544 | 11 | 0 | 0.0 | 0.0 | 0.00 | 0.00 | 0.00 | 86 | 1011.5 |
| 20260502052045 | 11 | 0 | 0.0 | 0.0 | 0.00 | 0.00 | 0.00 | 86 | 1011.7 |
| 20260502051550 | 11 | 0 | 0.0 | 0.0 | 0.00 | 0.00 | 0.00 | 86 | 1011.8 |
| 20260502051044 | 11 | 0 | 0.0 | 0.0 | 0.00 | 0.00 | 0.00 | 86 | 1011.8 |
| 20260502050544 | 11 | 0 | 0.0 | 0.0 | 0.00 | 0.00 | 0.00 | 86 | 1011.8 |
| 20260502050047 | 11 | 0 | 0.0 | 0.0 | 0.00 | 0.00 | 0.00 | 85 | 1011.8 |
| 20260502045546 | 11 | 0 | 0.0 | 0.0 | 0.00 | 0.00 | 0.00 | 85 | 1011.8 |
| 20260502045043 | 11 | 0 | 0.0 | 0.0 | 0.00 | 0.00 | 0.00 | 85 | 1011.8 |
| 20260502044552 | 11 | 0 | 0.0 | 0.0 | 0.00 | 0.00 | 0.00 | 85 | 1011.9 |
| 20260502044043 | 11 | 0 | 0.0 | 0.0 | 0.00 | 0.00 | 0.00 | 85 | 1011.9 |
| 20260502043543 | 11 | 0 | 0.0 | 0.0 | 0.00 | 0.00 | 0.00 | 85 | 1011.9 |
| 20260502043058 | 11 | 0 | 0.0 | 0.0 | 0.00 | 0.00 | 0.00 | 85 | 1012.0 |
| 20260502042543 | 11 | 0 | 0.0 | 0.0 | 0.00 | 0.00 | 0.00 | 85 | 1012.0 |
| 20260502042044 | 11 | 0 | 0.0 | 0.0 | 0.00 | 0.00 | 0.00 | 85 | 1012.0 |
| 20260502041554 | 11 | 0 | 0.0 | 0.0 | 0.00 | 0.00 | 0.00 | 84 | 1012.0 |
| 20260502041045 | 11 | 0 | 0.0 | 0.0 | 0.00 | 0.00 | 0.00 | 84 | 1012.1 |
| 20260502040544 | 11 | 0 | 0.0 | 0.0 | 0.00 | 0.00 | 0.00 | 84 | 1012.2 |
| 20260502040049 | 11 | 0 | 0.0 | 0.0 | 0.00 | 0.00 | 0.00 | 84 | 1012.1 |
| 20260502035543 | 11 | 0 | 0.0 | 0.0 | 0.00 | 0.00 | 0.00 | 84 | 1012.2 |
| 20260502035043 | 11 | 0 | 0.0 | 0.0 | 0.00 | 0.00 | 0.00 | 84 | 1012.2 |
| 20260502034549 | 11 | 0 | 0.0 | 0.0 | 0.00 | 0.00 | 0.00 | 84 | 1012.1 |
| 20260502034043 | 11 | 0 | 0.0 | 0.0 | 0.00 | 0.00 | 0.00 | 84 | 1012.2 |
| 20260502033542 | 11 | 0 | 0.0 | 0.0 | 0.00 | 0.00 | 0.00 | 84 | 1012.2 |
| 20260502033048 | 11 | 0 | 0.0 | 0.0 | 0.00 | 0.00 | 0.00 | 84 | 1012.1 |
| 20260502032544 | 11 | 0 | 0.0 | 0.0 | 0.00 | 0.00 | 0.00 | 84 | 1012.1 |
| 20260502032043 | 11 | 0 | 0.0 | 0.0 | 0.00 | 0.00 | 0.00 | 84 | 1012.3 |
| 20260502031553 | 11 | 0 | 0.0 | 0.0 | 0.00 | 0.00 | 0.00 | 84 | 1012.2 |
| 20260502031044 | 11 | 0 | 0.0 | 0.0 | 0.00 | 0.00 | 0.00 | 84 | 1012.3 |
| 20260502030544 | 11 | 0 | 0.0 | 0.0 | 0.00 | 0.00 | 0.00 | 84 | 1012.4 |
| 20260502030107 | 11 | 0 | 0.0 | 0.0 | 0.00 | 0.00 | 0.00 | 84 | 1012.4 |
| 20260502025544 | 12 | 0 | 0.0 | 0.0 | 0.00 | 0.00 | 0.00 | 84 | 1012.5 |
| 20260502025044 | 12 | 0 | 0.0 | 0.0 | 0.00 | 0.00 | 0.00 | 84 | 1012.5 |
| 20260502024604 | 12 | 0 | 0.0 | 0.0 | 0.00 | 0.00 | 0.00 | 83 | 1012.4 |
| 20260502024043 | 12 | 0 | 0.0 | 0.0 | 0.00 | 0.00 | 0.00 | 84 | 1012.4 |
| 20260502023543 | 12 | 0 | 0.0 | 0.0 | 0.00 | 0.00 | 0.00 | 84 | 1012.5 |
| 20260502023050 | 12 | 0 | 0.0 | 0.0 | 0.00 | 0.00 | 0.00 | 84 | 1012.5 |
| 20260502022544 | 12 | 0 | 0.0 | 0.0 | 0.00 | 0.00 | 0.00 | 84 | 1012.7 |
| 20260502022042 | 12 | 0 | 0.0 | 0.0 | 0.00 | 0.00 | 0.00 | 83 | 1012.8 |
| 20260502021547 | 12 | 0 | 0.0 | 0.0 | 0.00 | 0.00 | 0.00 | 83 | 1012.7 |
| 20260502021042 | 12 | 0 | 0.0 | 0.0 | 0.00 | 0.00 | 0.00 | 83 | 1012.7 |
| 20260502020544 | 12 | 0 | 0.0 | 0.0 | 0.00 | 0.00 | 0.00 | 83 | 1012.6 |
| 20260502020048 | 12 | 0 | 0.0 | 0.0 | 0.00 | 0.00 | 0.00 | 83 | 1012.7 |
| 20260502015547 | 12 | 0 | 0.0 | 0.0 | 0.00 | 0.00 | 0.00 | 83 | 1012.5 |
| 20260502015046 | 12 | 0 | 0.0 | 0.0 | 0.00 | 0.00 | 0.00 | 83 | 1012.5 |
| 20260502014546 | 12 | 0 | 0.0 | 0.0 | 0.00 | 0.00 | 0.00 | 83 | 1012.5 |
| 20260502014043 | 12 | 0 | 0.0 | 0.0 | 0.00 | 0.00 | 0.00 | 83 | 1012.4 |
| 20260502013543 | 12 | 0 | 0.0 | 0.0 | 0.00 | 0.00 | 0.00 | 83 | 1012.3 |
| 20260502013048 | 12 | 0 | 0.0 | 0.0 | 0.00 | 0.00 | 0.00 | 83 | 1012.4 |
| 20260502012545 | 12 | 0 | 0.0 | 0.0 | 0.00 | 0.00 | 0.00 | 83 | 1012.5 |
| 20260502012043 | 12 | 0 | 0.0 | 0.0 | 0.00 | 0.00 | 0.00 | 83 | 1012.5 |
| 20260502011550 | 12 | 0 | 0.0 | 0.0 | 0.00 | 0.00 | 0.00 | 83 | 1012.7 |
| 20260502011043 | 12 | 0 | 0.0 | 0.0 | 0.00 | 0.00 | 0.00 | 83 | 1012.4 |
| 20260502010547 | 12 | 0 | 0.0 | 0.0 | 0.00 | 0.00 | 0.00 | 83 | 1012.2 |